Flight Track Log - Related Links

Times and Time Zones

All times are in EDT time to prevent confusion due to time zone crossing. See the UCA4838 flight status page for this flight to view local times or setup timezone preferences in your user account.

Time Position Orientation Groundspeed Altitude Reporting Facility
EDT Latitude Longitude Course Direction KTS MPH feet Rate Location/Type
06:12AM 43.1036 -77.6914 216° Southwest 122 140 1,400  Level Cleveland Center
06:12AM 43.0914 -77.7033 216° Southwest 121 139 2,000 1,341 Climbing Cleveland Center
06:13AM 43.0603 -77.7161 197° South 135 155 3,300 927 Climbing Cleveland Center
06:14AM 43.0406 -77.6686 120° Southeast 187 215 3,700 826 Climbing Cleveland Center
06:15AM 43.0200 -77.5986 112° Southeast 194 223 4,800 1,150 Climbing Cleveland Center
06:16AM 42.9928 -77.5203 115° Southeast 210 242 6,000 1,150 Climbing Cleveland Center
06:17AM 42.9678 -77.4394 113° Southeast 221 254 7,100 1,150 Climbing Cleveland Center
06:18AM 42.9425 -77.3611 114° Southeast 221 254 8,300 1,100 Climbing Cleveland Center
06:19AM 42.9153 -77.2747 113° Southeast 232 267 9,300 1,100 Climbing Cleveland Center
06:20AM 42.8833 -77.1828 115° Southeast 232 267 10,500 1,104 Climbing Cleveland Center
06:22AM 42.8242 -76.9939 113° Southeast 250 288 13,000 711 Climbing New York Center
06:23AM 42.7761 -76.8875 122° Southeast 252 290 13,000  Level Boston Center
06:24AM 42.7319 -76.7908 122° Southeast 282 325 13,000 50 Level Boston Center
06:25AM 42.6878 -76.6889 120° Southeast 300 345 13,100 50 Climbing Boston Center
06:26AM 42.6436 -76.5900 121° Southeast 310 357 13,100  Level Boston Center
06:27AM 42.5972 -76.4881 122° Southeast 310 357 13,100  Level Boston Center
06:28AM 42.5528 -76.3892 121° Southeast 310 357 13,100  Level Boston Center
06:29AM 42.5081 -76.2906 122° Southeast 310 357 13,100  Level Boston Center
06:30AM 42.4636 -76.1892 121° Southeast 310 357 13,100  Level Boston Center
06:32AM 42.4072 -76.0650 122° Southeast 316 364 13,100  Level Boston Center
06:33AM 42.3642 -75.9725 122° Southeast 311 358 13,100  Level Boston Center
06:34AM 42.3194 -75.8717 121° Southeast 311 358 13,100  Level Boston Center
06:35AM 42.2706 -75.7567 120° Southeast 311 358 13,100  Level Boston Center
06:36AM 42.2233 -75.6589 123° Southeast 308 354 13,100  Level Boston Center
06:37AM 42.1761 -75.5611 123° Southeast 313 360 13,100 -50 Level Boston Center
06:38AM 42.1328 -75.4639 121° Southeast 308 354 13,000 -50 Descending Boston Center
06:39AM 42.0875 -75.3664 122° Southeast 308 354 13,000  Level Boston Center
06:40AM 42.0442 -75.2667 120° Southeast 308 354 13,000  Level Boston Center
06:41AM 42.0069 -75.1644 116° Southeast 302 348 13,000  Level Boston Center
06:42AM 41.9678 -75.0650 118° Southeast 302 348 13,000  Level Boston Center
06:43AM 41.9322 -74.9742 118° Southeast 302 348 13,000 -450 Level Boston Center
06:44AM 41.8678 -74.8794 132° Southeast 302 348 12,100 -950 Descending Boston Center
06:45AM 41.8047 -74.8019 137° Southeast 307 353 11,100 -900 Descending Boston Center
06:46AM 41.7303 -74.7714 163° South 297 342 10,300 -900 Descending Boston Center
06:47AM 41.6453 -74.7458 167° South 302 348 9,300 -900 Descending Boston Center
06:48AM 41.5644 -74.7208 167° South 302 348 8,500 -900 Descending Boston Center
06:49AM 41.4881 -74.6958 166° South 291 335 7,500 -939 Descending Boston Center
06:50AM 41.3667 -74.6667 170° South 285 328 6,200 -638 Descending New York TRACON
06:51AM 41.3000 -74.6333 159° South 285 328 6,000 -110 Descending New York TRACON
06:52AM 41.2333 -74.6167 169° South 284 327 6,000  Level New York TRACON
06:53AM 41.1667 -74.5833 159° South 288 331 6,000  Level New York TRACON
06:54AM 41.1167 -74.5000 129° Southeast 289 333 6,000  Level New York TRACON
06:55AM 41.0500 -74.5167 191° South 278 320 6,000  Level New York TRACON
06:56AM 40.9833 -74.5333 191° South 280 322 6,000  Level New York TRACON
06:57AM 40.9000 -74.5167 171° South 280 322 6,000  Level New York TRACON
06:58AM 40.8333 -74.5000 169° South 277 319 6,000  Level New York TRACON
06:59AM 40.7667 -74.4833 169° South 277 319 6,000  Level New York TRACON
06:59AM 40.6833 -74.4833 180° South 278 320 6,000  Level New York TRACON
07:00AM 40.6167 -74.4667 169° South 279 321 6,000 -105 Level New York TRACON
07:01AM 40.5500 -74.4500 169° South 281 323 5,800 -684 Descending New York TRACON
07:02AM 40.4667 -74.4333 171° South 272 313 4,700 -1,200 Descending New York TRACON
07:03AM 40.4000 -74.4000 159° South 278 320 3,400 -895 Descending New York TRACON
07:04AM 40.4333 -74.3333 57° Northeast 249 287 3,000 -211 Descending New York TRACON
07:05AM 40.4833 -74.3000 27° Northeast 235 270 3,000  Level New York TRACON
07:06AM 40.5333 -74.2667 27° Northeast 189 217 3,000 -350 Level New York TRACON
07:07AM 40.5833 -74.2333 27° Northeast 184 212 2,300 -850 Descending New York TRACON
07:08AM 40.6167 -74.2167 21° North 162 186 1,300 -800 Descending New York TRACON
07:09AM 40.6500 -74.1833 37° Northeast 100 115 700 -600 Descending New York TRACON
07:11AM 40.6833 -74.1667 23° Northeast  Level FlightAware Approximate

Login

Don't have an account? Register now (free) for customized features, flight alerts, and more!